Saint Bonnet de Bellac- Haute Vienne - France
Donnes mto: lundi, 05/12/2011
Date Horaire Temp. E. Hum. E. P.atmo. Pluie Vent Direction Direction Ensoleilleme Solaire P. de rose Temp au vent Rafales
05/12/2011 00:00 12,1 C 95 % 1007,7 hPa 0,1 mm 7,6 km/h (2 Bft) O-SO 247 0 min 0 W/m 11,3 C 12,1 C 12,6 km/h (3 Bft)
05/12/2011 00:05 12,0 C 95 % 1007,6 hPa 0,0 mm 9,0 km/h (2 Bft) SO 225 0 min 0 W/m 11,2 C 12,0 C 10,1 km/h (2 Bft)
05/12/2011 00:10 12,0 C 95 % 1007,6 hPa 0,1 mm 6,1 km/h (2 Bft) SO 225 0 min 0 W/m 11,2 C 12,0 C 10,8 km/h (2 Bft)
05/12/2011 00:15 12,0 C 95 % 1007,5 hPa 0,1 mm 9,7 km/h (2 Bft) SO 225 0 min 0 W/m 11,2 C 12,0 C 17,3 km/h (3 Bft)
05/12/2011 00:20 12,0 C 95 % 1007,5 hPa 0,0 mm 6,8 km/h (2 Bft) SO 225 0 min 0 W/m 11,2 C 12,0 C 10,1 km/h (2 Bft)
05/12/2011 00:25 12,0 C 96 % 1007,5 hPa 0,0 mm 4,7 km/h (1 Bft) O 270 0 min 0 W/m 11,4 C 12,0 C 8,6 km/h (2 Bft)
05/12/2011 00:30 12,0 C 96 % 1007,3 hPa 0,1 mm 4,3 km/h (1 Bft) O 270 0 min 0 W/m 11,4 C 12,0 C 7,6 km/h (2 Bft)
05/12/2011 00:35 12,0 C 96 % 1007,3 hPa 0,0 mm 7,2 km/h (2 Bft) S-SO 202 0 min 0 W/m 11,4 C 12,0 C 12,6 km/h (3 Bft)
05/12/2011 00:40 12,0 C 96 % 1007,4 hPa 0,2 mm 5,0 km/h (1 Bft) SO 225 0 min 0 W/m 11,4 C 12,0 C 8,3 km/h (2 Bft)
05/12/2011 00:45 12,0 C 96 % 1007,4 hPa 0,2 mm 11,2 km/h (2 Bft) S-SO 202 0 min 0 W/m 11,4 C 12,0 C 17,3 km/h (3 Bft)
05/12/2011 00:50 12,0 C 96 % 1007,3 hPa 0,0 mm 5,4 km/h (2 Bft) O-SO 247 0 min 0 W/m 11,4 C 12,0 C 15,5 km/h (3 Bft)
05/12/2011 00:55 12,1 C 96 % 1007,3 hPa 0,0 mm 11,5 km/h (2 Bft) O-NO 292 0 min 0 W/m 11,5 C 12,1 C 20,9 km/h (4 Bft)
05/12/2011 01:00 12,1 C 96 % 1007,3 hPa 0,0 mm 6,5 km/h (2 Bft) O-SO 247 0 min 0 W/m 11,5 C 12,1 C 13,3 km/h (3 Bft)
05/12/2011 01:05 12,1 C 95 % 1007,3 hPa 0,1 mm 2,5 km/h (1 Bft) O-SO 247 0 min 0 W/m 11,3 C 12,1 C 6,1 km/h (2 Bft)
05/12/2011 01:10 12,1 C 95 % 1007,4 hPa 0,4 mm 2,5 km/h (1 Bft) S-SO 202 0 min 0 W/m 11,3 C 12,1 C 4,3 km/h (1 Bft)
05/12/2011 01:15 12,2 C 95 % 1007,8 hPa 0,3 mm 5,4 km/h (2 Bft) O 270 0 min 0 W/m 11,4 C 12,2 C 9,0 km/h (2 Bft)
05/12/2011 01:20 12,0 C 95 % 1008,1 hPa 0,1 mm 10,8 km/h (2 Bft) O 270 0 min 0 W/m 11,2 C 12,0 C 20,9 km/h (4 Bft)
05/12/2011 01:25 11,8 C 95 % 1008,1 hPa 0,0 mm 8,6 km/h (2 Bft) O 270 0 min 0 W/m 11,0 C 11,8 C 9,7 km/h (2 Bft)
05/12/2011 01:30 11,4 C 95 % 1008,3 hPa 0,0 mm 1,8 km/h (1 Bft) O 270 0 min 0 W/m 10,6 C 11,4 C 7,6 km/h (2 Bft)
05/12/2011 01:35 11,3 C 95 % 1008,5 hPa 0,0 mm 4,0 km/h (1 Bft) O-SO 247 0 min 0 W/m 10,5 C 11,3 C 7,6 km/h (2 Bft)
05/12/2011 01:40 11,1 C 95 % 1008,5 hPa 0,0 mm 7,6 km/h (2 Bft) NE 45 0 min 0 W/m 10,3 C 11,1 C 7,6 km/h (2 Bft)
05/12/2011 01:45 10,9 C 94 % 1008,6 hPa 0,0 mm 7,9 km/h (2 Bft) NO 315 0 min 0 W/m 10,0 C 10,9 C 20,5 km/h (4 Bft)
05/12/2011 01:50 10,8 C 94 % 1008,7 hPa 0,0 mm 7,9 km/h (2 Bft) O 270 0 min 0 W/m 9,9 C 10,8 C 20,2 km/h (4 Bft)
05/12/2011 01:55 10,6 C 94 % 1008,6 hPa 0,0 mm 4,7 km/h (1 Bft) O 270 0 min 0 W/m 9,7 C 10,6 C 16,6 km/h (3 Bft)
05/12/2011 02:02 10,5 C 94 % 1009,0 hPa 0,1 mm 2,5 km/h (1 Bft) O 270 0 min 0 W/m 9,6 C 10,5 C 7,9 km/h (2 Bft)
05/12/2011 02:05 10,3 C 94 % 1008,7 hPa 0,0 mm 4,0 km/h (1 Bft) N-NO 337 0 min 0 W/m 9,4 C 10,3 C 6,8 km/h (2 Bft)
05/12/2011 02:10 10,3 C 94 % 1008,8 hPa 0,1 mm 0,7 km/h (0 Bft) O 270 0 min 0 W/m 9,4 C 10,3 C 3,2 km/h (1 Bft)
05/12/2011 02:15 10,2 C 94 % 1008,9 hPa 0,0 mm 1,8 km/h (1 Bft) N 360 0 min 0 W/m 9,3 C 10,2 C 6,1 km/h (2 Bft)
05/12/2011 02:20 10,1 C 94 % 1009,0 hPa 0,0 mm 2,2 km/h (1 Bft) O 270 0 min 0 W/m 9,2 C 10,1 C 6,5 km/h (2 Bft)
05/12/2011 02:25 10,0 C 94 % 1009,0 hPa 0,1 mm 11,5 km/h (2 Bft) N-NO 337 0 min 0 W/m 9,1 C 8,4 C 26,6 km/h (4 Bft)
05/12/2011 02:30 9,8 C 94 % 1009,1 hPa 0,1 mm 14,8 km/h (3 Bft) NO 315 0 min 0 W/m 8,9 C 7,7 C 20,2 km/h (4 Bft)
05/12/2011 02:35 9,7 C 94 % 1009,2 hPa 0,0 mm 8,3 km/h (2 Bft) O-SO 247 0 min 0 W/m 8,8 C 8,6 C 20,2 km/h (4 Bft)
05/12/2011 02:40 9,4 C 94 % 1009,3 hPa 0,0 mm 2,5 km/h (1 Bft) NO 315 0 min 0 W/m 8,5 C 9,4 C 14,4 km/h (3 Bft)
05/12/2011 02:45 9,3 C 93 % 1009,4 hPa 0,0 mm 5,4 km/h (2 Bft) N-NO 337 0 min 0 W/m 8,2 C 8,8 C 16,2 km/h (3 Bft)
05/12/2011 02:50 9,2 C 93 % 1009,4 hPa 0,0 mm 2,2 km/h (1 Bft) N-NO 337 0 min 0 W/m 8,1 C 9,2 C 3,6 km/h (1 Bft)
05/12/2011 02:55 9,1 C 93 % 1009,4 hPa 0,0 mm 3,6 km/h (1 Bft) SO 225 0 min 0 W/m 8,0 C 9,1 C 8,3 km/h (2 Bft)
05/12/2011 03:00 9,0 C 93 % 1009,5 hPa 0,0 mm 4,3 km/h (1 Bft) O 270 0 min 0 W/m 7,9 C 9,0 C 7,9 km/h (2 Bft)
05/12/2011 03:05 8,9 C 93 % 1009,5 hPa 0,0 mm 0,7 km/h (0 Bft) SO 225 0 min 0 W/m 7,8 C 8,9 C 0,7 km/h (0 Bft)
05/12/2011 03:10 8,9 C 94 % 1009,6 hPa 0,0 mm 6,1 km/h (2 Bft) O 270 0 min 0 W/m 8,0 C 8,2 C 9,7 km/h (2 Bft)
05/12/2011 03:15 8,8 C 94 % 1009,7 hPa 0,0 mm 3,6 km/h (1 Bft) O-NO 292 0 min 0 W/m 7,9 C 8,8 C 12,2 km/h (2 Bft)
05/12/2011 03:20 8,8 C 94 % 1009,8 hPa 0,0 mm 1,4 km/h (1 Bft) O 270 0 min 0 W/m 7,9 C 8,8 C 3,6 km/h (1 Bft)
05/12/2011 03:25 8,8 C 94 % 1009,9 hPa 0,0 mm 1,1 km/h (1 Bft) NO 315 0 min 0 W/m 7,9 C 8,8 C 3,6 km/h (1 Bft)
05/12/2011 03:30 8,8 C 94 % 1010,0 hPa 0,0 mm 2,2 km/h (1 Bft) O-SO 247 0 min 0 W/m 7,9 C 8,8 C 9,0 km/h (2 Bft)
05/12/2011 03:35 8,8 C 94 % 1010,0 hPa 0,0 mm 4,3 km/h (1 Bft) O-NO 292 0 min 0 W/m 7,9 C 8,8 C 11,2 km/h (2 Bft)
05/12/2011 03:40 8,8 C 94 % 1010,0 hPa 0,0 mm 7,9 km/h (2 Bft) O 270 0 min 0 W/m 7,9 C 7,6 C 16,6 km/h (3 Bft)
05/12/2011 03:45 8,6 C 93 % 1010,1 hPa 0,0 mm 4,7 km/h (1 Bft) O 270 0 min 0 W/m 7,5 C 8,3 C 4,7 km/h (1 Bft)
05/12/2011 03:50 8,5 C 93 % 1010,1 hPa 0,0 mm 2,2 km/h (1 Bft) O-NO 292 0 min 0 W/m 7,4 C 8,5 C 7,2 km/h (2 Bft)
05/12/2011 03:55 8,4 C 93 % 1010,2 hPa 0,0 mm 6,8 km/h (2 Bft) O 270 0 min 0 W/m 7,3 C 7,4 C 9,7 km/h (2 Bft)
05/12/2011 04:00 8,2 C 93 % 1010,3 hPa 0,0 mm 0,4 km/h (0 Bft) O-NO 292 0 min 0 W/m 7,1 C 8,2 C 3,6 km/h (1 Bft)
05/12/2011 04:05 8,1 C 92 % 1010,4 hPa 0,0 mm 10,4 km/h (2 Bft) O 270 0 min 0 W/m 6,9 C 6,3 C 11,5 km/h (2 Bft)
05/12/2011 04:10 7,9 C 92 % 1010,5 hPa 0,0 mm 4,3 km/h (1 Bft) O-NO 292 0 min 0 W/m 6,7 C 7,9 C 9,4 km/h (2 Bft)
05/12/2011 04:15 7,8 C 92 % 1010,6 hPa 0,0 mm 1,4 km/h (1 Bft) O 270 0 min 0 W/m 6,6 C 7,8 C 1,4 km/h (1 Bft)
05/12/2011 04:20 7,6 C 92 % 1010,7 hPa 0,0 mm 1,8 km/h (1 Bft) NO 315 0 min 0 W/m 6,4 C 7,6 C 6,8 km/h (2 Bft)
05/12/2011 04:25 7,4 C 92 % 1010,8 hPa 0,0 mm 6,5 km/h (2 Bft) O 270 0 min 0 W/m 6,2 C 6,3 C 10,8 km/h (2 Bft)
05/12/2011 04:30 7,3 C 92 % 1010,8 hPa 0,0 mm 10,8 km/h (2 Bft) O-SO 247 0 min 0 W/m 6,1 C 5,3 C 17,6 km/h (3 Bft)
05/12/2011 04:35 7,1 C 92 % 1010,9 hPa 0,0 mm 5,8 km/h (2 Bft) N-NO 337 0 min 0 W/m 5,9 C 6,2 C 7,6 km/h (2 Bft)
05/12/2011 04:40 7,0 C 91 % 1011,0 hPa 0,0 mm 4,3 km/h (1 Bft) N-NO 337 0 min 0 W/m 5,6 C 7,0 C 4,3 km/h (1 Bft)
05/12/2011 04:45 6,9 C 92 % 1011,1 hPa 0,0 mm 4,7 km/h (1 Bft) N-NO 337 0 min 0 W/m 5,7 C 6,3 C 8,3 km/h (2 Bft)
05/12/2011 04:50 6,7 C 92 % 1011,1 hPa 0,0 mm 1,8 km/h (1 Bft) O-NO 292 0 min 0 W/m 5,5 C 6,7 C 6,8 km/h (2 Bft)
05/12/2011 04:55 6,6 C 92 % 1011,1 hPa 0,0 mm 0,7 km/h (0 Bft) O-NO 292 0 min 0 W/m 5,4 C 6,6 C 0,7 km/h (0 Bft)
05/12/2011 05:00 6,4 C 92 % 1011,1 hPa 0,0 mm 1,1 km/h (1 Bft) O-NO 292 0 min 0 W/m 5,2 C 6,4 C 1,4 km/h (1 Bft)
05/12/2011 05:05 6,3 C 92 % 1011,2 hPa 0,0 mm 0,0 km/h (0 Bft) O 270 0 min 0 W/m 5,1 C 6,3 C 0,0 km/h (0 Bft)
05/12/2011 05:10 6,2 C 92 % 1011,3 hPa 0,0 mm 1,1 km/h (1 Bft) SO 225 0 min 0 W/m 5,0 C 6,2 C 1,1 km/h (1 Bft)
05/12/2011 05:15 6,1 C 92 % 1011,2 hPa 0,0 mm 1,1 km/h (1 Bft) O 270 0 min 0 W/m 4,9 C 6,1 C 6,5 km/h (2 Bft)
05/12/2011 05:20 6,0 C 92 % 1011,4 hPa 0,0 mm 0,0 km/h (0 Bft) O 270 0 min 0 W/m 4,8 C 6,0 C 3,6 km/h (1 Bft)
05/12/2011 05:25 5,9 C 92 % 1011,5 hPa 0,0 mm 0,0 km/h (0 Bft) O 270 0 min 0 W/m 4,7 C 5,9 C 0,0 km/h (0 Bft)
05/12/2011 05:30 5,8 C 92 % 1011,6 hPa 0,0 mm 0,4 km/h (0 Bft) O-NO 292 0 min 0 W/m 4,6 C 5,8 C 0,4 km/h (0 Bft)
05/12/2011 05:35 5,8 C 92 % 1011,8 hPa 0,0 mm 0,0 km/h (0 Bft) O-NO 292 0 min 0 W/m 4,6 C 5,8 C 0,0 km/h (0 Bft)
05/12/2011 05:40 5,6 C 92 % 1011,8 hPa 0,0 mm 0,0 km/h (0 Bft) O 270 0 min 0 W/m 4,4 C 5,6 C 0,0 km/h (0 Bft)
05/12/2011 05:45 5,5 C 92 % 1011,9 hPa 0,0 mm 0,4 km/h (0 Bft) NO 315 0 min 0 W/m 4,3 C 5,5 C 3,6 km/h (1 Bft)
05/12/2011 05:50 5,4 C 93 % 1012,0 hPa 0,0 mm 3,6 km/h (1 Bft) O 270 0 min 0 W/m 4,4 C 5,4 C 8,6 km/h (2 Bft)
05/12/2011 05:55 5,4 C 93 % 1011,9 hPa 0,0 mm 0,0 km/h (0 Bft) O 270 0 min 0 W/m 4,4 C 5,4 C 0,0 km/h (0 Bft)
05/12/2011 06:00 5,4 C 93 % 1012,1 hPa 0,0 mm 0,0 km/h (0 Bft) O 270 0 min 0 W/m 4,4 C 5,4 C 0,0 km/h (0 Bft)
05/12/2011 06:05 5,4 C 93 % 1012,0 hPa 0,0 mm 0,0 km/h (0 Bft) O 270 0 min 0 W/m 4,4 C 5,4 C 0,0 km/h (0 Bft)
05/12/2011 06:10 5,3 C 93 % 1012,3 hPa 0,0 mm 0,0 km/h (0 Bft) O 270 0 min 0 W/m 4,3 C 5,3 C 0,0 km/h (0 Bft)
05/12/2011 06:15 5,2 C 93 % 1012,2 hPa 0,0 mm 0,0 km/h (0 Bft) O-NO 292 0 min 0 W/m 4,2 C 5,2 C 0,0 km/h (0 Bft)
05/12/2011 06:20 5,2 C 93 % 1012,2 hPa 0,0 mm 0,0 km/h (0 Bft) O 270 0 min 0 W/m 4,2 C 5,2 C 0,0 km/h (0 Bft)
05/12/2011 06:25 5,1 C 93 % 1012,1 hPa 0,0 mm 0,0 km/h (0 Bft) O 270 0 min 0 W/m 4,1 C 5,1 C 0,0 km/h (0 Bft)
05/12/2011 06:30 5,1 C 93 % 1012,2 hPa 0,0 mm 0,0 km/h (0 Bft) O-SO 247 0 min 0 W/m 4,1 C 5,1 C 0,0 km/h (0 Bft)
05/12/2011 06:35 5,2 C 94 % 1012,3 hPa 0,0 mm 0,0 km/h (0 Bft) O-SO 247 0 min 0 W/m 4,3 C 5,2 C 0,0 km/h (0 Bft)
05/12/2011 06:40 5,1 C 94 % 1012,3 hPa 0,0 mm 0,0 km/h (0 Bft) O-SO 247 0 min 0 W/m 4,2 C 5,1 C 0,0 km/h (0 Bft)
05/12/2011 06:45 5,1 C 94 % 1012,4 hPa 0,0 mm 0,0 km/h (0 Bft) O-SO 247 0 min 0 W/m 4,2 C 5,1 C 0,0 km/h (0 Bft)
05/12/2011 06:50 5,1 C 94 % 1012,6 hPa 0,0 mm 0,0 km/h (0 Bft) O-SO 247 0 min 0 W/m 4,2 C 5,1 C 0,0 km/h (0 Bft)
05/12/2011 06:55 4,9 C 94 % 1012,7 hPa 0,0 mm 0,0 km/h (0 Bft) O 270 0 min 0 W/m 4,0 C 4,9 C 0,0 km/h (0 Bft)
05/12/2011 07:00 4,9 C 94 % 1012,9 hPa 0,0 mm 0,0 km/h (0 Bft) O 270 0 min 0 W/m 4,0 C 4,9 C 2,9 km/h (1 Bft)
05/12/2011 07:05 4,8 C 94 % 1013,0 hPa 0,0 mm 0,0 km/h (0 Bft) O-SO 247 0 min 0 W/m 3,9 C 4,8 C 0,0 km/h (0 Bft)
05/12/2011 07:10 4,6 C 94 % 1013,0 hPa 0,0 mm 0,0 km/h (0 Bft) O-SO 247 0 min 0 W/m 3,7 C 4,6 C 0,0 km/h (0 Bft)
05/12/2011 07:15 4,6 C 94 % 1013,2 hPa 0,0 mm 0,0 km/h (0 Bft) O-SO 247 0 min 0 W/m 3,7 C 4,6 C 0,0 km/h (0 Bft)
05/12/2011 07:20 4,5 C 94 % 1013,3 hPa 0,0 mm 0,0 km/h (0 Bft) S-SO 202 0 min 0 W/m 3,6 C 4,5 C 0,0 km/h (0 Bft)
05/12/2011 07:25 4,3 C 94 % 1013,5 hPa 0,0 mm 0,0 km/h (0 Bft) O 270 0 min 0 W/m 3,4 C 4,3 C 0,0 km/h (0 Bft)
05/12/2011 07:30 4,3 C 94 % 1013,7 hPa 0,0 mm 0,0 km/h (0 Bft) O-SO 247 0 min 0 W/m 3,4 C 4,3 C 0,0 km/h (0 Bft)
05/12/2011 07:35 4,2 C 94 % 1013,8 hPa 0,0 mm 0,0 km/h (0 Bft) O-SO 247 0 min 0 W/m 3,3 C 4,2 C 0,0 km/h (0 Bft)
05/12/2011 07:40 4,1 C 94 % 1013,8 hPa 0,0 mm 0,0 km/h (0 Bft) O-SO 247 0 min 0 W/m 3,2 C 4,1 C 0,0 km/h (0 Bft)
05/12/2011 07:45 4,1 C 94 % 1013,8 hPa 0,0 mm 0,0 km/h (0 Bft) O 270 0 min 0 W/m 3,2 C 4,1 C 0,0 km/h (0 Bft)
05/12/2011 07:50 4,0 C 94 % 1013,8 hPa 0,0 mm 0,0 km/h (0 Bft) O-SO 247 0 min 0 W/m 3,1 C 4,0 C 0,0 km/h (0 Bft)
05/12/2011 07:55 4,0 C 94 % 1013,8 hPa 0,0 mm 0,0 km/h (0 Bft) O-SO 247 0 min 0 W/m 3,1 C 4,0 C 0,0 km/h (0 Bft)
05/12/2011 08:00 4,0 C 94 % 1013,8 hPa 0,0 mm 0,0 km/h (0 Bft) S-SO 202 0 min 0 W/m 3,1 C 4,0 C 0,0 km/h (0 Bft)
05/12/2011 08:05 4,1 C 94 % 1013,9 hPa 0,0 mm 0,0 km/h (0 Bft) O-SO 247 0 min 0 W/m 3,2 C 4,1 C 0,0 km/h (0 Bft)
05/12/2011 08:10 4,1 C 94 % 1013,8 hPa 0,0 mm 0,0 km/h (0 Bft) S-SO 202 0 min 0 W/m 3,2 C 4,1 C 0,0 km/h (0 Bft)
05/12/2011 08:15 4,1 C 94 % 1014,1 hPa 0,0 mm 0,4 km/h (0 Bft) SO 225 0 min 0 W/m 3,2 C 4,1 C 0,4 km/h (0 Bft)
05/12/2011 08:20 4,1 C 94 % 1014,3 hPa 0,0 mm 0,0 km/h (0 Bft) SO 225 0 min 0 W/m 3,2 C 4,1 C 0,0 km/h (0 Bft)
05/12/2011 08:25 4,2 C 94 % 1014,4 hPa 0,0 mm 0,0 km/h (0 Bft) O 270 0 min 0 W/m 3,3 C 4,2 C 0,0 km/h (0 Bft)
05/12/2011 08:30 4,2 C 94 % 1014,3 hPa 0,0 mm 0,0 km/h (0 Bft) O-NO 292 0 min 0 W/m 3,3 C 4,2 C 2,9 km/h (1 Bft)
05/12/2011 08:35 4,2 C 94 % 1014,4 hPa 0,0 mm 1,1 km/h (1 Bft) O 270 0 min 0 W/m 3,3 C 4,2 C 1,1 km/h (1 Bft)
05/12/2011 08:40 4,3 C 95 % 1014,5 hPa 0,0 mm 1,1 km/h (1 Bft) O 270 0 min 0 W/m 3,6 C 4,3 C 1,1 km/h (1 Bft)
05/12/2011 08:45 4,3 C 95 % 1014,6 hPa 0,0 mm 0,0 km/h (0 Bft) O 270 0 min 0 W/m 3,6 C 4,3 C 0,0 km/h (0 Bft)
05/12/2011 08:50 4,4 C 95 % 1014,7 hPa 0,0 mm 0,7 km/h (0 Bft) O 270 0 min 0 W/m 3,7 C 4,4 C 3,2 km/h (1 Bft)
05/12/2011 08:55 4,4 C 95 % 1015,0 hPa 0,0 mm 0,7 km/h (0 Bft) O-NO 292 0 min 0 W/m 3,7 C 4,4 C 3,6 km/h (1 Bft)
05/12/2011 09:00 4,4 C 95 % 1015,1 hPa 0,0 mm 0,4 km/h (0 Bft) O 270 0 min 0 W/m 3,7 C 4,4 C 3,6 km/h (1 Bft)
05/12/2011 09:05 4,5 C 95 % 1015,1 hPa 0,0 mm 0,4 km/h (0 Bft) O-NO 292 0 min 0 W/m 3,8 C 4,5 C 0,4 km/h (0 Bft)
05/12/2011 09:10 4,6 C 95 % 1015,1 hPa 0,0 mm 0,0 km/h (0 Bft) O 270 0 min 0 W/m 3,9 C 4,6 C 0,0 km/h (0 Bft)
05/12/2011 09:15 4,6 C 95 % 1015,0 hPa 0,0 mm 0,0 km/h (0 Bft) O-SO 247 0 min 0 W/m 3,9 C 4,6 C 2,9 km/h (1 Bft)
05/12/2011 09:20 4,8 C 95 % 1015,1 hPa 0,0 mm 0,0 km/h (0 Bft) O-SO 247 0 min 0 W/m 4,1 C 4,8 C 0,0 km/h (0 Bft)
05/12/2011 09:25 4,8 C 95 % 1015,1 hPa 0,0 mm 0,0 km/h (0 Bft) O 270 0 min 0 W/m 4,1 C 4,8 C 0,0 km/h (0 Bft)
05/12/2011 09:30 4,8 C 95 % 1015,3 hPa 0,0 mm 0,0 km/h (0 Bft) O 270 0 min 0 W/m 4,1 C 4,8 C 0,0 km/h (0 Bft)
05/12/2011 09:35 4,8 C 95 % 1015,3 hPa 0,0 mm 0,0 km/h (0 Bft) O-SO 247 0 min 0 W/m 4,1 C 4,8 C 0,0 km/h (0 Bft)
05/12/2011 09:40 4,8 C 95 % 1015,4 hPa 0,0 mm 0,0 km/h (0 Bft) O-SO 247 0 min 0 W/m 4,1 C 4,8 C 0,0 km/h (0 Bft)
05/12/2011 09:45 4,9 C 95 % 1015,5 hPa 0,0 mm 0,0 km/h (0 Bft) O-SO 247 0 min 0 W/m 4,2 C 4,9 C 0,0 km/h (0 Bft)
05/12/2011 09:50 5,1 C 95 % 1015,5 hPa 0,0 mm 0,0 km/h (0 Bft) SO 225 0 min 0 W/m 4,4 C 5,1 C 0,0 km/h (0 Bft)
05/12/2011 09:55 5,4 C 96 % 1015,5 hPa 0,0 mm 0,0 km/h (0 Bft) S-SO 202 0 min 0 W/m 4,8 C 5,4 C 0,0 km/h (0 Bft)
05/12/2011 10:00 5,8 C 96 % 1015,8 hPa 0,0 mm 0,0 km/h (0 Bft) O-SO 247 0 min 0 W/m 5,2 C 5,8 C 0,0 km/h (0 Bft)
05/12/2011 10:05 5,9 C 95 % 1015,7 hPa 0,0 mm 0,0 km/h (0 Bft) SO 225 0 min 0 W/m 5,2 C 5,9 C 0,0 km/h (0 Bft)
05/12/2011 10:10 6,1 C 95 % 1015,9 hPa 0,0 mm 1,8 km/h (1 Bft) O 270 0 min 0 W/m 5,4 C 6,1 C 6,1 km/h (2 Bft)
05/12/2011 10:15 6,1 C 95 % 1016,0 hPa 0,0 mm 0,4 km/h (0 Bft) O 270 0 min 0 W/m 5,4 C 6,1 C 0,4 km/h (0 Bft)
05/12/2011 10:20 6,3 C 95 % 1015,9 hPa 0,0 mm 0,0 km/h (0 Bft) O 270 0 min 0 W/m 5,6 C 6,3 C 0,0 km/h (0 Bft)
05/12/2011 10:25 6,3 C 95 % 1016,0 hPa 0,0 mm 0,0 km/h (0 Bft) O-NO 292 0 min 0 W/m 5,6 C 6,3 C 0,0 km/h (0 Bft)
05/12/2011 10:30 6,3 C 95 % 1016,1 hPa 0,0 mm 0,0 km/h (0 Bft) O-SO 247 0 min 0 W/m 5,6 C 6,3 C 0,0 km/h (0 Bft)
05/12/2011 10:35 6,3 C 95 % 1016,2 hPa 0,0 mm 0,4 km/h (0 Bft) SO 225 0 min 0 W/m 5,6 C 6,3 C 0,4 km/h (0 Bft)
05/12/2011 10:40 6,3 C 94 % 1016,2 hPa 0,0 mm 0,0 km/h (0 Bft) S-SO 202 0 min 0 W/m 5,4 C 6,3 C 0,0 km/h (0 Bft)
05/12/2011 10:45 6,4 C 94 % 1016,2 hPa 0,0 mm 0,4 km/h (0 Bft) O-SO 247 0 min 0 W/m 5,5 C 6,4 C 0,4 km/h (0 Bft)
05/12/2011 10:50 6,5 C 94 % 1016,2 hPa 0,0 mm 0,0 km/h (0 Bft) O 270 0 min 0 W/m 5,6 C 6,5 C 0,0 km/h (0 Bft)
05/12/2011 10:55 6,6 C 94 % 1016,2 hPa 0,0 mm 1,4 km/h (1 Bft) O 270 0 min 0 W/m 5,7 C 6,6 C 3,6 km/h (1 Bft)
05/12/2011 11:00 6,8 C 94 % 1016,3 hPa 0,0 mm 0,0 km/h (0 Bft) O-SO 247 0 min 0 W/m 5,9 C 6,8 C 0,0 km/h (0 Bft)
05/12/2011 11:05 7,0 C 94 % 1016,3 hPa 0,0 mm 3,2 km/h (1 Bft) SO 225 0 min 0 W/m 6,1 C 7,0 C 3,2 km/h (1 Bft)
05/12/2011 11:10 7,1 C 93 % 1016,3 hPa 0,0 mm 0,4 km/h (0 Bft) SO 225 0 min 0 W/m 6,0 C 7,1 C 3,6 km/h (1 Bft)
05/12/2011 11:15 7,1 C 92 % 1016,4 hPa 0,0 mm 1,1 km/h (1 Bft) O-SO 247 0 min 0 W/m 5,9 C 7,1 C 3,2 km/h (1 Bft)
05/12/2011 11:20 7,2 C 92 % 1016,2 hPa 0,0 mm 1,4 km/h (1 Bft) SO 225 0 min 0 W/m 6,0 C 7,2 C 3,6 km/h (1 Bft)
05/12/2011 11:25 7,1 C 92 % 1016,1 hPa 0,0 mm 0,0 km/h (0 Bft) S-SO 202 0 min 0 W/m 5,9 C 7,1 C 0,0 km/h (0 Bft)
05/12/2011 11:30 7,2 C 92 % 1015,9 hPa 0,0 mm 0,0 km/h (0 Bft) S 180 0 min 0 W/m 6,0 C 7,2 C 0,0 km/h (0 Bft)
05/12/2011 11:35 7,6 C 92 % 1015,9 hPa 0,0 mm 0,0 km/h (0 Bft) S 180 0 min 0 W/m 6,4 C 7,6 C 0,0 km/h (0 Bft)
05/12/2011 11:40 7,9 C 91 % 1016,1 hPa 0,0 mm 0,4 km/h (0 Bft) SO 225 0 min 0 W/m 6,5 C 7,9 C 4,0 km/h (1 Bft)
05/12/2011 11:45 8,2 C 90 % 1016,3 hPa 0,0 mm 1,1 km/h (1 Bft) O-SO 247 0 min 0 W/m 6,7 C 8,2 C 4,3 km/h (1 Bft)
05/12/2011 11:50 8,4 C 90 % 1016,5 hPa 0,0 mm 1,8 km/h (1 Bft) SO 225 0 min 0 W/m 6,9 C 8,4 C 4,3 km/h (1 Bft)
05/12/2011 11:55 8,3 C 88 % 1016,5 hPa 0,0 mm 4,0 km/h (1 Bft) O-SO 247 0 min 0 W/m 6,4 C 8,3 C 8,3 km/h (2 Bft)
05/12/2011 12:00 8,3 C 87 % 1016,4 hPa 0,0 mm 2,9 km/h (1 Bft) SO 225 0 min 0 W/m 6,3 C 8,3 C 4,7 km/h (1 Bft)
05/12/2011 12:05 8,4 C 87 % 1016,5 hPa 0,0 mm 2,2 km/h (1 Bft) O-SO 247 0 min 0 W/m 6,4 C 8,4 C 2,2 km/h (1 Bft)
05/12/2011 12:10 8,4 C 87 % 1016,5 hPa 0,0 mm 3,2 km/h (1 Bft) SO 225 0 min 0 W/m 6,4 C 8,4 C 4,3 km/h (1 Bft)
05/12/2011 12:15 8,4 C 87 % 1016,4 hPa 0,0 mm 2,5 km/h (1 Bft) O-SO 247 0 min 0 W/m 6,4 C 8,4 C 3,6 km/h (1 Bft)
05/12/2011 12:20 8,4 C 88 % 1016,5 hPa 0,0 mm 0,0 km/h (0 Bft) O-SO 247 0 min 0 W/m 6,5 C 8,4 C 0,0 km/h (0 Bft)
05/12/2011 12:25 8,4 C 88 % 1016,5 hPa 0,0 mm 2,2 km/h (1 Bft) O 270 0 min 0 W/m 6,5 C 8,4 C 6,8 km/h (2 Bft)
05/12/2011 12:30 8,3 C 87 % 1016,4 hPa 0,0 mm 1,8 km/h (1 Bft) O-NO 292 0 min 0 W/m 6,3 C 8,3 C 4,3 km/h (1 Bft)
05/12/2011 12:35 8,5 C 87 % 1016,3 hPa 0,0 mm 4,7 km/h (1 Bft) N-NO 337 0 min 0 W/m 6,5 C 8,2 C 6,1 km/h (2 Bft)
05/12/2011 12:40 8,5 C 87 % 1016,3 hPa 0,0 mm 1,1 km/h (1 Bft) O-SO 247 0 min 0 W/m 6,5 C 8,5 C 6,1 km/h (2 Bft)
05/12/2011 12:45 8,5 C 86 % 1016,2 hPa 0,0 mm 1,4 km/h (1 Bft) O-SO 247 0 min 0 W/m 6,3 C 8,5 C 4,0 km/h (1 Bft)
05/12/2011 12:50 8,4 C 85 % 1016,2 hPa 0,0 mm 4,3 km/h (1 Bft) S-SO 202 0 min 0 W/m 6,0 C 8,4 C 9,0 km/h (2 Bft)
05/12/2011 12:55 8,3 C 85 % 1016,2 hPa 0,0 mm 2,5 km/h (1 Bft) SO 225 0 min 0 W/m 5,9 C 8,3 C 7,6 km/h (2 Bft)
05/12/2011 13:00 8,3 C 85 % 1016,2 hPa 0,0 mm 1,4 km/h (1 Bft) S-SO 202 0 min 0 W/m 5,9 C 8,3 C 3,6 km/h (1 Bft)
05/12/2011 13:05 8,3 C 85 % 1016,3 hPa 0,0 mm 1,4 km/h (1 Bft) SO 225 0 min 0 W/m 5,9 C 8,3 C 3,2 km/h (1 Bft)
05/12/2011 13:10 8,2 C 85 % 1016,1 hPa 0,0 mm 0,4 km/h (0 Bft) O-SO 247 0 min 0 W/m 5,8 C 8,2 C 0,4 km/h (0 Bft)
05/12/2011 13:15 8,2 C 85 % 1016,0 hPa 0,0 mm 0,7 km/h (0 Bft) S-SE 157 0 min 0 W/m 5,8 C 8,2 C 2,9 km/h (1 Bft)
05/12/2011 13:20 8,2 C 85 % 1015,7 hPa 0,0 mm 1,4 km/h (1 Bft) SO 225 0 min 0 W/m 5,8 C 8,2 C 6,1 km/h (2 Bft)
05/12/2011 13:25 8,2 C 85 % 1015,7 hPa 0,0 mm 0,7 km/h (0 Bft) O-SO 247 0 min 0 W/m 5,8 C 8,2 C 4,0 km/h (1 Bft)
05/12/2011 13:30 8,2 C 84 % 1015,9 hPa 0,0 mm 4,7 km/h (1 Bft) S-SO 202 0 min 0 W/m 5,7 C 7,8 C 7,9 km/h (2 Bft)
05/12/2011 13:35 8,1 C 83 % 1016,0 hPa 0,0 mm 2,2 km/h (1 Bft) SO 225 0 min 0 W/m 5,4 C 8,1 C 3,6 km/h (1 Bft)
05/12/2011 13:40 8,2 C 84 % 1016,0 hPa 0,0 mm 1,8 km/h (1 Bft) O 270 0 min 0 W/m 5,7 C 8,2 C 6,5 km/h (2 Bft)
05/12/2011 13:45 8,3 C 84 % 1016,0 hPa 0,0 mm 2,2 km/h (1 Bft) S-SO 202 0 min 0 W/m 5,8 C 8,3 C 9,4 km/h (2 Bft)
05/12/2011 13:50 8,3 C 84 % 1016,1 hPa 0,0 mm 1,4 km/h (1 Bft) O-SO 247 0 min 0 W/m 5,8 C 8,3 C 4,0 km/h (1 Bft)
05/12/2011 13:55 8,4 C 84 % 1015,8 hPa 0,0 mm 2,9 km/h (1 Bft) O 270 0 min 0 W/m 5,9 C 8,4 C 11,2 km/h (2 Bft)
05/12/2011 14:00 8,6 C 82 % 1015,8 hPa 0,0 mm 11,2 km/h (2 Bft) S-SO 202 0 min 0 W/m 5,7 C 6,7 C 12,2 km/h (2 Bft)
05/12/2011 14:05 8,9 C 81 % 1015,9 hPa 0,0 mm 2,5 km/h (1 Bft) S-SO 202 0 min 0 W/m 5,8 C 8,9 C 9,0 km/h (2 Bft)
05/12/2011 14:10 9,3 C 80 % 1015,9 hPa 0,0 mm 1,4 km/h (1 Bft) O-SO 247 0 min 0 W/m 6,0 C 9,3 C 1,4 km/h (1 Bft)
05/12/2011 14:15 9,5 C 80 % 1016,0 hPa 0,0 mm 3,6 km/h (1 Bft) SO 225 0 min 0 W/m 6,2 C 9,5 C 7,2 km/h (2 Bft)
05/12/2011 14:20 9,6 C 78 % 1015,9 hPa 0,0 mm 5,4 km/h (2 Bft) S-SO 202 0 min 0 W/m 6,0 C 9,2 C 9,7 km/h (2 Bft)
05/12/2011 14:25 9,6 C 77 % 1015,7 hPa 0,0 mm 4,0 km/h (1 Bft) O-SO 247 0 min 0 W/m 5,8 C 9,6 C 4,0 km/h (1 Bft)
05/12/2011 14:30 9,7 C 78 % 1015,8 hPa 0,0 mm 3,2 km/h (1 Bft) SO 225 0 min 0 W/m 6,1 C 9,7 C 3,2 km/h (1 Bft)
05/12/2011 14:35 9,8 C 77 % 1015,8 hPa 0,0 mm 6,1 km/h (2 Bft) SO 225 0 min 0 W/m 6,0 C 9,2 C 10,4 km/h (2 Bft)
05/12/2011 14:40 9,8 C 75 % 1015,7 hPa 0,0 mm 5,8 km/h (2 Bft) SO 225 0 min 0 W/m 5,6 C 9,3 C 11,5 km/h (2 Bft)
05/12/2011 14:45 9,6 C 75 % 1015,7 hPa 0,0 mm 3,6 km/h (1 Bft) SO 225 0 min 0 W/m 5,4 C 9,6 C 7,9 km/h (2 Bft)
05/12/2011 14:50 9,5 C 75 % 1015,7 hPa 0,0 mm 2,5 km/h (1 Bft) S-SO 202 0 min 0 W/m 5,3 C 9,5 C 3,6 km/h (1 Bft)
05/12/2011 14:55 9,6 C 76 % 1015,7 hPa 0,0 mm 4,7 km/h (1 Bft) SO 225 0 min 0 W/m 5,6 C 9,4 C 12,6 km/h (3 Bft)
05/12/2011 15:00 9,6 C 73 % 1015,9 hPa 0,0 mm 2,9 km/h (1 Bft) S-SO 202 0 min 0 W/m 5,0 C 9,6 C 4,7 km/h (1 Bft)
05/12/2011 15:05 9,4 C 71 % 1015,9 hPa 0,0 mm 7,6 km/h (2 Bft) SO 225 0 min 0 W/m 4,4 C 8,4 C 10,4 km/h (2 Bft)
05/12/2011 15:10 9,3 C 73 % 1015,9 hPa 0,0 mm 1,8 km/h (1 Bft) SO 225 0 min 0 W/m 4,7 C 9,3 C 5,0 km/h (1 Bft)
05/12/2011 15:15 9,1 C 73 % 1015,8 hPa 0,0 mm 4,7 km/h (1 Bft) O 270 0 min 0 W/m 4,5 C 8,8 C 7,2 km/h (2 Bft)
05/12/2011 15:20 8,9 C 74 % 1015,8 hPa 0,0 mm 6,8 km/h (2 Bft) S-SO 202 0 min 0 W/m 4,5 C 8,0 C 9,7 km/h (2 Bft)
05/12/2011 15:25 8,8 C 74 % 1015,9 hPa 0,0 mm 4,3 km/h (1 Bft) S-SO 202 0 min 0 W/m 4,4 C 8,8 C 4,3 km/h (1 Bft)
05/12/2011 15:30 8,6 C 74 % 1015,9 hPa 0,0 mm 6,8 km/h (2 Bft) SO 225 0 min 0 W/m 4,2 C 7,6 C 7,9 km/h (2 Bft)
05/12/2011 15:35 8,6 C 74 % 1015,8 hPa 0,0 mm 2,5 km/h (1 Bft) O-SO 247 0 min 0 W/m 4,2 C 8,6 C 8,6 km/h (2 Bft)
05/12/2011 15:40 8,5 C 73 % 1015,6 hPa 0,0 mm 2,9 km/h (1 Bft) SO 225 0 min 0 W/m 3,9 C 8,5 C 8,6 km/h (2 Bft)
05/12/2011 15:45 8,4 C 73 % 1015,4 hPa 0,0 mm 6,1 km/h (2 Bft) SO 225 0 min 0 W/m 3,8 C 7,6 C 6,1 km/h (2 Bft)
05/12/2011 15:50 8,3 C 74 % 1015,3 hPa 0,0 mm 4,0 km/h (1 Bft) SO 225 0 min 0 W/m 3,9 C 8,3 C 8,3 km/h (2 Bft)
05/12/2011 15:55 8,3 C 75 % 1015,5 hPa 0,0 mm 4,3 km/h (1 Bft) S-SO 202 0 min 0 W/m 4,1 C 8,3 C 6,5 km/h (2 Bft)
05/12/2011 16:00 8,2 C 76 % 1015,6 hPa 0,0 mm 2,2 km/h (1 Bft) SO 225 0 min 0 W/m 4,2 C 8,2 C 2,9 km/h (1 Bft)
05/12/2011 16:05 8,1 C 77 % 1015,6 hPa 0,0 mm 5,8 km/h (2 Bft) SO 225 0 min 0 W/m 4,3 C 7,3 C 10,8 km/h (2 Bft)
05/12/2011 16:10 8,1 C 78 % 1015,3 hPa 0,0 mm 3,6 km/h (1 Bft) SO 225 0 min 0 W/m 4,5 C 8,1 C 4,0 km/h (1 Bft)
05/12/2011 16:15 7,9 C 78 % 1015,3 hPa 0,0 mm 3,2 km/h (1 Bft) SO 225 0 min 0 W/m 4,3 C 7,9 C 4,3 km/h (1 Bft)
05/12/2011 16:20 7,8 C 79 % 1015,4 hPa 0,0 mm 6,1 km/h (2 Bft) SO 225 0 min 0 W/m 4,4 C 6,9 C 6,1 km/h (2 Bft)
05/12/2011 16:25 7,8 C 80 % 1015,4 hPa 0,0 mm 1,8 km/h (1 Bft) S-SO 202 0 min 0 W/m 4,6 C 7,8 C 6,5 km/h (2 Bft)
05/12/2011 16:30 7,7 C 80 % 1015,4 hPa 0,0 mm 3,6 km/h (1 Bft) SO 225 0 min 0 W/m 4,5 C 7,7 C 3,6 km/h (1 Bft)
05/12/2011 16:35 7,7 C 80 % 1015,5 hPa 0,0 mm 0,4 km/h (0 Bft) SO 225 0 min 0 W/m 4,5 C 7,7 C 2,9 km/h (1 Bft)
05/12/2011 16:40 7,7 C 79 % 1015,6 hPa 0,0 mm 2,5 km/h (1 Bft) O-SO 247 0 min 0 W/m 4,3 C 7,7 C 8,6 km/h (2 Bft)
05/12/2011 16:45 7,6 C 77 % 1015,6 hPa 0,0 mm 2,5 km/h (1 Bft) SO 225 0 min 0 W/m 3,8 C 7,6 C 3,2 km/h (1 Bft)
05/12/2011 16:50 7,6 C 76 % 1015,6 hPa 0,0 mm 5,8 km/h (2 Bft) S-SO 202 0 min 0 W/m 3,6 C 6,8 C 6,5 km/h (2 Bft)
05/12/2011 16:55 7,6 C 76 % 1015,5 hPa 0,0 mm 1,4 km/h (1 Bft) S 180 0 min 0 W/m 3,6 C 7,6 C 4,3 km/h (1 Bft)
05/12/2011 17:00 7,5 C 77 % 1015,6 hPa 0,0 mm 0,4 km/h (0 Bft) S-SO 202 0 min 0 W/m 3,7 C 7,5 C 0,4 km/h (0 Bft)
05/12/2011 17:05 7,5 C 77 % 1015,7 hPa 0,0 mm 2,2 km/h (1 Bft) S-SO 202 0 min 0 W/m 3,7 C 7,5 C 5,8 km/h (2 Bft)
05/12/2011 17:10 7,4 C 77 % 1015,8 hPa 0,0 mm 1,4 km/h (1 Bft) O-SO 247 0 min 0 W/m 3,6 C 7,4 C 4,3 km/h (1 Bft)
05/12/2011 17:15 7,4 C 77 % 1016,0 hPa 0,0 mm 0,4 km/h (0 Bft) SO 225 0 min 0 W/m 3,6 C 7,4 C 3,6 km/h (1 Bft)
05/12/2011 17:20 7,3 C 77 % 1016,0 hPa 0,0 mm 1,4 km/h (1 Bft) O-SO 247 0 min 0 W/m 3,5 C 7,3 C 4,0 km/h (1 Bft)
05/12/2011 17:25 7,3 C 77 % 1015,9 hPa 0,0 mm 1,4 km/h (1 Bft) SO 225 0 min 0 W/m 3,5 C 7,3 C 3,2 km/h (1 Bft)
05/12/2011 17:30 7,2 C 78 % 1015,9 hPa 0,0 mm 3,6 km/h (1 Bft) S-SO 202 0 min 0 W/m 3,6 C 7,2 C 7,6 km/h (2 Bft)
05/12/2011 17:35 7,2 C 78 % 1015,9 hPa 0,0 mm 5,0 km/h (1 Bft) O-SO 247 0 min 0 W/m 3,6 C 6,6 C 8,3 km/h (2 Bft)
05/12/2011 17:40 7,1 C 78 % 1015,9 hPa 0,0 mm 2,5 km/h (1 Bft) SO 225 0 min 0 W/m 3,5 C 7,1 C 6,1 km/h (2 Bft)
05/12/2011 17:45 7,1 C 79 % 1015,9 hPa 0,0 mm 3,2 km/h (1 Bft) SO 225 0 min 0 W/m 3,7 C 7,1 C 5,8 km/h (2 Bft)
05/12/2011 17:50 7,1 C 80 % 1015,8 hPa 0,0 mm 2,5 km/h (1 Bft) S-SO 202 0 min 0 W/m 3,9 C 7,1 C 3,6 km/h (1 Bft)
05/12/2011 17:55 7,1 C 80 % 1015,8 hPa 0,0 mm 1,8 km/h (1 Bft) S-SO 202 0 min 0 W/m 3,9 C 7,1 C 4,3 km/h (1 Bft)
05/12/2011 18:00 7,1 C 80 % 1015,7 hPa 0,0 mm 4,7 km/h (1 Bft) S-SO 202 0 min 0 W/m 3,9 C 6,6 C 7,6 km/h (2 Bft)
05/12/2011 18:05 7,1 C 80 % 1015,8 hPa 0,0 mm 2,2 km/h (1 Bft) SO 225 0 min 0 W/m 3,9 C 7,1 C 4,0 km/h (1 Bft)
05/12/2011 18:10 7,1 C 80 % 1015,8 hPa 0,0 mm 1,4 km/h (1 Bft) O-SO 247 0 min 0 W/m 3,9 C 7,1 C 4,0 km/h (1 Bft)
05/12/2011 18:15 7,0 C 81 % 1015,8 hPa 0,0 mm 1,8 km/h (1 Bft) O-SO 247 0 min 0 W/m 4,0 C 7,0 C 3,2 km/h (1 Bft)
05/12/2011 18:20 6,9 C 80 % 1015,8 hPa 0,0 mm 4,3 km/h (1 Bft) S-SO 202 0 min 0 W/m 3,7 C 6,9 C 4,3 km/h (1 Bft)
05/12/2011 18:25 7,0 C 81 % 1015,9 hPa 0,0 mm 4,0 km/h (1 Bft) SO 225 0 min 0 W/m 4,0 C 7,0 C 4,0 km/h (1 Bft)
05/12/2011 18:30 6,9 C 81 % 1015,8 hPa 0,0 mm 3,6 km/h (1 Bft) SO 225 0 min 0 W/m 3,9 C 6,9 C 7,9 km/h (2 Bft)
05/12/2011 18:35 6,9 C 81 % 1015,7 hPa 0,0 mm 5,4 km/h (2 Bft) O-SO 247 0 min 0 W/m 3,9 C 6,1 C 6,5 km/h (2 Bft)
05/12/2011 18:40 6,9 C 80 % 1015,8 hPa 0,0 mm 7,6 km/h (2 Bft) SO 225 0 min 0 W/m 3,7 C 5,5 C 7,6 km/h (2 Bft)
05/12/2011 18:45 6,9 C 81 % 1015,8 hPa 0,0 mm 4,3 km/h (1 Bft) S-SO 202 0 min 0 W/m 3,9 C 6,9 C 6,8 km/h (2 Bft)
05/12/2011 18:50 6,8 C 81 % 1015,7 hPa 0,0 mm 5,4 km/h (2 Bft) O-SO 247 0 min 0 W/m 3,8 C 6,0 C 6,5 km/h (2 Bft)
05/12/2011 18:55 6,8 C 81 % 1015,8 hPa 0,0 mm 4,3 km/h (1 Bft) SO 225 0 min 0 W/m 3,8 C 6,8 C 7,6 km/h (2 Bft)
05/12/2011 19:00 6,8 C 82 % 1015,8 hPa 0,0 mm 4,3 km/h (1 Bft) S-SO 202 0 min 0 W/m 3,9 C 6,8 C 5,4 km/h (2 Bft)
05/12/2011 19:05 6,8 C 82 % 1015,8 hPa 0,0 mm 4,0 km/h (1 Bft) O-SO 247 0 min 0 W/m 3,9 C 6,8 C 4,0 km/h (1 Bft)
05/12/2011 19:10 6,7 C 82 % 1015,8 hPa 0,0 mm 9,4 km/h (2 Bft) SO 225 0 min 0 W/m 3,8 C 4,8 C 12,6 km/h (3 Bft)
05/12/2011 19:15 6,6 C 83 % 1015,8 hPa 0,0 mm 5,4 km/h (2 Bft) SO 225 0 min 0 W/m 3,9 C 5,8 C 8,3 km/h (2 Bft)
05/12/2011 19:20 6,6 C 84 % 1015,9 hPa 0,0 mm 6,5 km/h (2 Bft) S-SO 202 0 min 0 W/m 4,1 C 5,4 C 9,0 km/h (2 Bft)
05/12/2011 19:25 6,6 C 84 % 1015,9 hPa 0,0 mm 5,0 km/h (1 Bft) SO 225 0 min 0 W/m 4,1 C 5,9 C 6,1 km/h (2 Bft)
05/12/2011 19:30 6,6 C 85 % 1015,8 hPa 0,0 mm 2,9 km/h (1 Bft) SO 225 0 min 0 W/m 4,3 C 6,6 C 6,8 km/h (2 Bft)
05/12/2011 19:35 6,5 C 85 % 1015,8 hPa 0,0 mm 2,9 km/h (1 Bft) SO 225 0 min 0 W/m 4,2 C 6,5 C 4,3 km/h (1 Bft)
05/12/2011 19:40 6,4 C 85 % 1015,6 hPa 0,0 mm 5,0 km/h (1 Bft) SO 225 0 min 0 W/m 4,1 C 5,7 C 7,9 km/h (2 Bft)
05/12/2011 19:45 6,3 C 86 % 1015,7 hPa 0,0 mm 2,5 km/h (1 Bft) S-SO 202 0 min 0 W/m 4,1 C 6,3 C 6,5 km/h (2 Bft)
05/12/2011 19:50 6,2 C 86 % 1015,8 hPa 0,0 mm 5,8 km/h (2 Bft) SO 225 0 min 0 W/m 4,0 C 5,2 C 6,8 km/h (2 Bft)
05/12/2011 19:55 6,2 C 87 % 1015,8 hPa 0,0 mm 4,7 km/h (1 Bft) S-SO 202 0 min 0 W/m 4,2 C 5,6 C 7,9 km/h (2 Bft)
05/12/2011 20:00 6,1 C 87 % 1015,9 hPa 0,0 mm 4,0 km/h (1 Bft) SO 225 0 min 0 W/m 4,1 C 6,1 C 6,1 km/h (2 Bft)
05/12/2011 20:05 5,9 C 88 % 1015,9 hPa 0,0 mm 4,0 km/h (1 Bft) S-SO 202 0 min 0 W/m 4,1 C 5,9 C 7,2 km/h (2 Bft)
05/12/2011 20:10 5,8 C 88 % 1015,8 hPa 0,0 mm 6,8 km/h (2 Bft) O-SO 247 0 min 0 W/m 4,0 C 4,4 C 6,8 km/h (2 Bft)
05/12/2011 20:15 5,7 C 89 % 1015,6 hPa 0,0 mm 4,7 km/h (1 Bft) S-SO 202 0 min 0 W/m 4,0 C 5,0 C 9,4 km/h (2 Bft)
05/12/2011 20:20 5,6 C 89 % 1015,6 hPa 0,0 mm 5,8 km/h (2 Bft) S-SO 202 0 min 0 W/m 3,9 C 4,5 C 6,5 km/h (2 Bft)
05/12/2011 20:25 5,5 C 89 % 1015,7 hPa 0,0 mm 5,8 km/h (2 Bft) N 360 0 min 0 W/m 3,8 C 4,4 C 5,8 km/h (2 Bft)
05/12/2011 20:30 5,4 C 89 % 1015,7 hPa 0,0 mm 4,3 km/h (1 Bft) SO 225 0 min 0 W/m 3,7 C 5,4 C 7,9 km/h (2 Bft)
05/12/2011 20:35 5,4 C 89 % 1015,6 hPa 0,0 mm 4,0 km/h (1 Bft) S-SO 202 0 min 0 W/m 3,7 C 5,4 C 4,3 km/h (1 Bft)
05/12/2011 20:40 5,4 C 90 % 1015,5 hPa 0,0 mm 7,2 km/h (2 Bft) S 180 0 min 0 W/m 3,9 C 3,8 C 7,9 km/h (2 Bft)
05/12/2011 20:45 5,4 C 90 % 1015,5 hPa 0,0 mm 4,0 km/h (1 Bft) SO 225 0 min 0 W/m 3,9 C 5,4 C 6,1 km/h (2 Bft)
05/12/2011 20:50 5,5 C 90 % 1015,4 hPa 0,0 mm 4,7 km/h (1 Bft) SO 225 0 min 0 W/m 4,0 C 4,8 C 7,9 km/h (2 Bft)
05/12/2011 20:55 5,5 C 90 % 1015,5 hPa 0,0 mm 4,3 km/h (1 Bft) O-SO 247 0 min 0 W/m 4,0 C 5,5 C 8,3 km/h (2 Bft)
05/12/2011 21:00 5,6 C 90 % 1015,4 hPa 0,0 mm 5,8 km/h (2 Bft) O-SO 247 0 min 0 W/m 4,1 C 4,5 C 8,3 km/h (2 Bft)
05/12/2011 21:05 5,7 C 90 % 1015,3 hPa 0,0 mm 4,7 km/h (1 Bft) S-SO 202 0 min 0 W/m 4,2 C 5,0 C 6,1 km/h (2 Bft)
05/12/2011 21:10 5,8 C 90 % 1015,3 hPa 0,0 mm 11,2 km/h (2 Bft) SO 225 0 min 0 W/m 4,3 C 3,4 C 11,2 km/h (2 Bft)
05/12/2011 21:15 5,8 C 90 % 1015,2 hPa 0,0 mm 8,6 km/h (2 Bft) S-SO 202 0 min 0 W/m 4,3 C 3,9 C 11,2 km/h (2 Bft)
05/12/2011 21:20 5,9 C 90 % 1015,3 hPa 0,0 mm 8,3 km/h (2 Bft) S-SO 202 0 min 0 W/m 4,4 C 4,1 C 13,0 km/h (3 Bft)
05/12/2011 21:25 6,0 C 91 % 1015,2 hPa 0,0 mm 6,8 km/h (2 Bft) S-SO 202 0 min 0 W/m 4,6 C 4,6 C 10,1 km/h (2 Bft)
05/12/2011 21:30 6,1 C 91 % 1015,3 hPa 0,0 mm 7,9 km/h (2 Bft) S-SE 157 0 min 0 W/m 4,7 C 4,5 C 13,3 km/h (3 Bft)
05/12/2011 21:35 6,2 C 91 % 1015,3 hPa 0,0 mm 5,4 km/h (2 Bft) S-SO 202 0 min 0 W/m 4,8 C 5,3 C 7,6 km/h (2 Bft)
05/12/2011 21:40 6,3 C 90 % 1015,3 hPa 0,0 mm 8,3 km/h (2 Bft) O-SO 247 0 min 0 W/m 4,8 C 4,6 C 8,3 km/h (2 Bft)
05/12/2011 21:45 6,3 C 90 % 1015,4 hPa 0,0 mm 5,8 km/h (2 Bft) S-SO 202 0 min 0 W/m 4,8 C 5,3 C 8,6 km/h (2 Bft)
05/12/2011 21:50 6,3 C 90 % 1015,4 hPa 0,0 mm 7,6 km/h (2 Bft) SO 225 0 min 0 W/m 4,8 C 4,8 C 14,0 km/h (3 Bft)
05/12/2011 21:55 6,4 C 91 % 1015,4 hPa 0,0 mm 5,0 km/h (1 Bft) O-SO 247 0 min 0 W/m 5,0 C 5,7 C 7,9 km/h (2 Bft)
05/12/2011 22:00 6,4 C 91 % 1015,4 hPa 0,0 mm 10,8 km/h (2 Bft) SO 225 0 min 0 W/m 5,0 C 4,2 C 10,8 km/h (2 Bft)
05/12/2011 22:05 6,4 C 91 % 1015,3 hPa 0,0 mm 7,9 km/h (2 Bft) O-SO 247 0 min 0 W/m 5,0 C 4,8 C 9,7 km/h (2 Bft)
05/12/2011 22:10 6,4 C 91 % 1015,2 hPa 0,0 mm 6,8 km/h (2 Bft) SO 225 0 min 0 W/m 5,0 C 5,1 C 13,7 km/h (3 Bft)
05/12/2011 22:15 6,4 C 91 % 1015,3 hPa 0,0 mm 6,5 km/h (2 Bft) SO 225 0 min 0 W/m 5,0 C 5,2 C 14,8 km/h (3 Bft)
05/12/2011 22:20 6,4 C 92 % 1015,3 hPa 0,0 mm 5,8 km/h (2 Bft) SO 225 0 min 0 W/m 5,2 C 5,4 C 10,8 km/h (2 Bft)
05/12/2011 22:25 6,4 C 92 % 1015,5 hPa 0,0 mm 7,2 km/h (2 Bft) SO 225 0 min 0 W/m 5,2 C 5,0 C 8,3 km/h (2 Bft)
05/12/2011 22:30 6,3 C 92 % 1015,5 hPa 0,0 mm 6,8 km/h (2 Bft) SO 225 0 min 0 W/m 5,1 C 5,0 C 10,4 km/h (2 Bft)
05/12/2011 22:35 6,3 C 92 % 1015,4 hPa 0,0 mm 4,7 km/h (1 Bft) SO 225 0 min 0 W/m 5,1 C 5,7 C 8,6 km/h (2 Bft)
05/12/2011 22:40 6,3 C 92 % 1015,4 hPa 0,0 mm 7,6 km/h (2 Bft) SO 225 0 min 0 W/m 5,1 C 4,8 C 8,3 km/h (2 Bft)
05/12/2011 22:45 6,3 C 92 % 1015,5 hPa 0,0 mm 5,0 km/h (1 Bft) O-SO 247 0 min 0 W/m 5,1 C 5,6 C 8,6 km/h (2 Bft)
05/12/2011 22:50 6,3 C 92 % 1015,5 hPa 0,0 mm 6,8 km/h (2 Bft) SO 225 0 min 0 W/m 5,1 C 5,0 C 7,9 km/h (2 Bft)
05/12/2011 22:55 6,3 C 92 % 1015,5 hPa 0,0 mm 7,6 km/h (2 Bft) S-SO 202 0 min 0 W/m 5,1 C 4,8 C 10,4 km/h (2 Bft)
05/12/2011 23:00 6,3 C 92 % 1015,4 hPa 0,0 mm 4,7 km/h (1 Bft) S 180 0 min 0 W/m 5,1 C 5,7 C 4,7 km/h (1 Bft)
05/12/2011 23:05 6,4 C 92 % 1015,3 hPa 0,0 mm 5,8 km/h (2 Bft) S-SO 202 0 min 0 W/m 5,2 C 5,4 C 7,2 km/h (2 Bft)
05/12/2011 23:10 6,4 C 93 % 1015,2 hPa 0,0 mm 5,8 km/h (2 Bft) SO 225 0 min 0 W/m 5,4 C 5,4 C 9,7 km/h (2 Bft)
05/12/2011 23:15 6,4 C 93 % 1015,2 hPa 0,1 mm 5,4 km/h (2 Bft) O-SO 247 0 min 0 W/m 5,4 C 5,5 C 8,3 km/h (2 Bft)
05/12/2011 23:20 6,5 C 93 % 1015,4 hPa 0,0 mm 4,3 km/h (1 Bft) SO 225 0 min 0 W/m 5,5 C 6,5 C 7,9 km/h (2 Bft)
05/12/2011 23:25 6,5 C 93 % 1015,5 hPa 0,0 mm 6,5 km/h (2 Bft) SO 225 0 min 0 W/m 5,5 C 5,3 C 10,8 km/h (2 Bft)
05/12/2011 23:30 6,5 C 93 % 1015,4 hPa 0,0 mm 5,8 km/h (2 Bft) SO 225 0 min 0 W/m 5,5 C 5,5 C 6,5 km/h (2 Bft)
05/12/2011 23:35 6,5 C 93 % 1015,4 hPa 0,0 mm 8,3 km/h (2 Bft) SO 225 0 min 0 W/m 5,5 C 4,8 C 8,3 km/h (2 Bft)
05/12/2011 23:40 6,5 C 93 % 1015,3 hPa 0,0 mm 7,2 km/h (2 Bft) S-SO 202 0 min 0 W/m 5,5 C 5,1 C 11,2 km/h (2 Bft)
05/12/2011 23:45 6,6 C 93 % 1015,2 hPa 0,0 mm 10,1 km/h (2 Bft) S 180 0 min 0 W/m 5,6 C 4,5 C 13,7 km/h (3 Bft)
05/12/2011 23:50 6,6 C 93 % 1015,2 hPa 0,0 mm 9,0 km/h (2 Bft) S-SO 202 0 min 0 W/m 5,6 C 4,8 C 9,0 km/h (2 Bft)
05/12/2011 23:55 6,6 C 93 % 1015,2 hPa 0,0 mm 5,4 km/h (2 Bft) SO 225 0 min 0 W/m 5,6 C 5,8 C 6,1 km/h (2 Bft)
_ Min-Heure 08:00 15:05 01:05 - 12:20 - - - - 08:00 21:10 12:20
Minimum _ 4,0 C 71 % 1007,3 hPa - 0,0 km/h (0 Bft) - - - - 3,1 C 3,4 C 0,0 km/h (0 Bft)
_ Max-Heure 01:15 10:00 12:25 01:10 02:30 - - 23:55 23:55 01:00 01:15 02:25
Maximum _ 12,2 C 96 % 1016,5 hPa 0,4 mm 14,8 km/h
NO (3 Bft)
- - 0 min 0 W/m 11,5 C 12,2 C 26,6 km/h
N-NO (4 Bft)
Moyenne _ 7,3 C 89 % 1013,9 hPa #2,3 mm 3,4 km/h (1 Bft) SO - #0 min. 0 W/m 5,5 C 7,0 C 6,0 km/h (2 Bft)
Saint Bonnet de Bellac- Haute Vienne - France